Powrót do katalogu

CZ-6A DEB

AktywnySSO
NORAD 54467·DEBRIS·🇨🇳 China

Wystrzelony Nov 11, 2022 z Taiyuan Satellite Launch Center

Loading…

Następne Przeloty (najbliższe 24 godziny)

TLE

ŚwieżeSource: Space-Track

Epoka: Sep 14, 2026, 00:53 UTC

1 54467U 22151GT  26257.03686432  .00002243  00000-0  59399-3 0  9990
2 54467  98.5982 297.1476 0097521  90.7814 270.4553 14.46972961201512

Śledź CZ-6A DEB w czasie rzeczywistym z AllMySat

Download on the App Store